Weather Roundup
Issued by NWS Chicago, IL

Home | Current Version | Previous Version | Text Only | Print | Product List | Glossary On
Versions: 1 2 3 4 5 6 7 8 9 10 11 12 13 14 15 16 17 18 19 20 21 22 23 24 25 26 27 28 29 30 31 32 33 34 35 36 37 38 39 40 41 42 43 44 45 46 47 48 49 50
000
NZUS59 KLOT 291109
HRRLOT

CHICAGO AREA WEATHER ROUNDUP
NATIONAL WEATHER SERVICE CHICAGO/ROMEOVILLE IL
600 AM CDT THU JUN 29 2017

NOTE: "FAIR" INDICATES FEW OR NO CLOUDS BELOW 12,000 FEET WITH NO
SIGNIFICANT WEATHER AND/OR OBSTRUCTIONS TO VISIBILITY.

* THESE STATIONS ARE NOT UNDER NWS QUALITY CONTROL. THEY ALSO MAY NOT
  REPORT WEATHER SUCH AS PRECIPITATION OR FOG.

ILZ005-006-012>014-019>023-291200-
NORTHEAST ILLINOIS

CITY           SKY/WX    TMP DP  RH WIND       PRES   REMARKS
OHARE          MOCLDY    71  63  75 SW9       29.75R
MIDWAY         MOCLDY    73  64  73 SW10      29.76R
AURORA         CLOUDY    69  62  78 SW10      29.78R
LANSING*       MOCLDY    73  62  68 SW14G20   29.79R
JOLIET*        CLOUDY    73  65  74 SW6       29.78S
WAUKEGAN       MOCLDY    66  65  96 SW8       29.73R
DUPAGE AIRPORT CLOUDY    70  64  81 SW12      29.77R
WHEELING       MOCLDY    69  66  90 SW8       29.77R
MORRIS*        CLOUDY    70  63  80 SW8       29.78R
LEWIS AIRPORT* CLOUDY    71  62  73 SW9       29.78R
$$

WIZ051-052-058>065-066-070>072-291200-
SOUTHEAST WISCONSIN

CITY           SKY/WX    TMP DP  RH WIND       PRES   REMARKS
MILWAUKEE      MOCLDY    68  65  90 SW15      29.69R
KENOSHA*       CLOUDY    67  63  87 SW8       29.72R
RACINE*        MOCLDY    68  64  87 SW9       29.72R
WAUKESHA       MOCLDY    64  63  94 SW8       29.71R
WEST BEND      CLOUDY    64  63  94 SW3       29.67S
$$

INZ001>003-010>013-019-020-291200-
NORTHWEST INDIANA

CITY           SKY/WX    TMP DP  RH WIND       PRES   REMARKS
GARY*          MOCLDY    75  63  64 S10       29.78R
MICHIGAN CITY* NOT AVBL
RENSSELAER*    NOT AVBL
VALPARAISO     CLOUDY    75  64  68 SW10G18   29.80F
$$

LMZ740>746-291200-
SOUTHERN LAKE MICHIGAN

STATION/POSITION TIME  SKY/WX   TEMP WIND        PRES    VSBY
                                AIR  DIR/SP/G
                 (UTC)          (F)  (DEG/KT/KT) (MB)    (MI)
HARRISON CRIB    1040            75  210/ 17/ 19   N/A
BURNHAM HARBOR   1100            73                N/A
CALUMET HARBOR   1042            74  200/  8/ 12 1007.4R
BURNS HARBOR     1040            74  200/ 19/ 22 1008.5F
MICHIGAN CITY    1040            74  180/ 19/ 22   N/A
$$

ABBREVIATIONS USED IN REMARKS
   TC - TEMPERATURE IN CELSIUS
  WCI - WIND CHILL INDEX
   HX - HEAT INDEX
  VSB - VISIBILITY
$$




USA.gov is the U.S. government's official web portal to all federal, state and local government web resources and services.